User: anonymous   Login
Location: Lone Wolf Observatory
(41.0360°N, 89.2260°W)
Time: 07:49:48
(UTC-05:00)
Language:

Cosmos 1378 Rocket - Orbit

View from above orbital plane
View from above orbital plane
View from above satellite
View from above satellite

Ground track
Ground track

The orbit data is extracted from the following two-line orbital elements,

1 13272U 82059B   17291.37767696  .00000081  00000-0  67117-5 0  9996
2 13272  82.5140  23.4190 0020072  72.6313 287.7095 14.84614578910173
Epoch (UTC): 18 October 2017 09:03:51
Eccentricity: 0.0020072
inclination: 82.5140°
perigee height: 601 km
apogee height: 629 km
right ascension of ascending node: 23.4190°
argument of perigee: 72.6313°
revolutions per day: 14.84614578
mean anomaly at epoch: 287.7095°
orbit number at epoch: 91017

The dashed part of the orbit path shows where the satellite is in the earth's shadow,  

DLR